Regional Weather Roundup
Issued by NWS Pendleton, OR

Home | Current Version | Previous Version | Text Only | Print | Product List | Glossary On
Versions: 1 2 3 4 5 6 7 8 9 10 11 12 13 14 15 16 17 18 19 20 21 22 23 24 25 26 27 28 29 30 31 32 33 34 35 36 37 38 39 40 41 42 43 44 45 46 47 48 49 50
000
ASUS46 KPDT 241425
RWRPDT
PENDLETON REGIONAL WEATHER ROUNDUP
NATIONAL WEATHER SERVICE PENDLETON OREGON
700 AM PDT WED AUG 24 2016

NOTE: FAIR INDICATES FEW OR NO CLOUDS BELOW 12,000 FEET WITH NO
SIGNIFICANT WEATHER AND/OR OBSTRUCTIONS TO VISIBILITY.

# INDICATES UNOFFICIAL STATION AND DATA

WAZ520-241510-
EAST SLOPES OF WASHINGTON CASCADES

CITY            SKY/WX      TMP DP  RH  WIND    PRES   REMARKS
#CLE ELUM HS    N/A         48  44  86  CALM    30.19R
#CLE ELUM 2NW   N/A         51  45  80  CALM    N/A
#GLENWOOD       N/A         41  40  96  CALM    30.19R
#MANASTASH CYN  N/A         52  38  59  CALM    30.22R
#NELSON 3SW     N/A         52  44  74  CALM    30.38R
#NILE           N/A         48  41  77  W2      29.50S
#RONALD 2NW     N/A         50  N/A N/A CALM    30.13R
#TEANAWAY 4NE   N/A         46  43  89  CALM    N/A
#TROUT LAKE 1NE N/A         49  43  80  CALM    30.17R
#TROUT LAKE 1E  N/A         46  43  89  CALM    30.18R
$$

WAZ521-241510-
SIMCOE HIGHLANDS

CITY            SKY/WX      TMP DP  RH  WIND    PRES   REMARKS
#CENTERVILLE 1SWN/A         45  33  63  CALM    30.14R
#GOLDENDALE 1NE N/A         49  26  40  CALM    N/A
#GOLDENDALE 4W  N/A         50  42  74  E2      30.23R
#GOODNOE HILLS  N/A         64  45  50  W8      30.09R
#LYLE 6NE       N/A         57  43  59  CALM    30.12R
$$

WAZ026-241510-
KITTITAS VALLEY

CITY            SKY/WX      TMP DP  RH  WIND    PRES   REMARKS
ELLENSBURG AP   MOSUNNY     54  46  74  CALM    30.23R
#ELLENSBURG CWU N/A         53  47  80  CALM    30.13R
#ELLENSBURG 3NE N/A         51  47  86  CALM    30.22R
#ELLENSBURG     N/A         57  51  80  NE1     N/A
#ELLENSBURG 1E  N/A         49  N/A N/A CALM    N/A
#KITTITAS 4N    N/A         54  46  74  SE2     30.17R
#KITTITAS 3S    N/A         47  45  93  CALM    30.17R
#THORP 6N       N/A         55  46  72  N2      30.19R
$$

WAZ027-241510-
YAKIMA VALLEY

CITY            SKY/WX      TMP DP  RH  WIND    PRES   REMARKS
SUNNYSIDE AP    N/A         56  48  74  CALM    30.19R
YAKIMA AIRPORT  SUNNY       55  44  66  W8      30.21R
YAKIMA-VAGABOND N/A         57  44  62  E6      30.20R
#DONALD 2NE     N/A         63  25  23  W2      29.04R
#GRANDVIEW      N/A         61  43  51  W2      30.18R
#MABTON         N/A         58  46  64  CALM    30.19R
#NACHES 2SW     N/A         58  44  60  W3      30.23R
#TERRACE HTS    N/A         60  47  62  CALM    30.12R
#TOPPENISH      N/A         59  46  62  CALM    30.09R
#WHITE SWAN 5E  N/A         49  44  83  CALM    30.17R
#WILEY CITY 3W  N/A         56  38  51  CALM    30.19R
$$

WAZ028-241510-
LOWER COLUMBIA BASIN...WASHINGTON

CITY            SKY/WX      TMP DP  RH  WIND    PRES   REMARKS
HANFORD         MOSUNNY     67  41  39  N7      30.16R
PASCO           SUNNY       54  48  80  CALM    30.17R
PROSSER AWOS    N/A         57  50  77  W5      30.22R
RICHLAND AWOS   SUNNY       63  51  65  CALM    30.17R
#BENTON CITY    N/A         65  46  50  SW3     30.05R
#CONNELL 5N     N/A         55  41  59  CALM    30.14R
#CONNELL 5NW    N/A         53  27  36  CALM    30.10R
#ELTOPIA 6NW    N/A         58  47  67  CALM    29.14R
#KAHLOTUS       N/A         54  40  59  CALM    30.13R
#KENNEWICK 3S   N/A         59  49  69  CALM    30.15R
#PATERSON       N/A         56  47  72  CALM    30.15R
#SAGEMOOR 2W    N/A         59  46  62  N1      29.99R
#TOUCHET 2S     N/A         46  44  93  CALM    30.14R
#WEST PASCO     N/A         57  51  80  CALM    30.18R
$$

WAZ029-241510-
FOOTHILLS OF THE BLUES...WASHINGTON

CITY            SKY/WX      TMP DP  RH  WIND    PRES   REMARKS
WALLA WALLA AP  SUNNY       59  42  53  CALM    30.17R
#CLYDE 6NW      N/A         48  41  77  CALM    30.14R
#DAYTON SCHOOL  N/A         56  41  57  CALM    30.17R
#LOWDEN 2SE     N/A         49  45  86  CALM    30.14R
#PLEASANT VIEW 1N/A         61  44  53  CALM    30.15R
#PRESCOTT       N/A         50  44  80  CALM    30.15R
#WHITMAN COLLEGEN/A         63  46  54  CALM    30.18R
#WAITSBURG 8N   N/A         58  23  26  CALM    30.18R
#WALLA WALLA U  N/A         58  48  69  CALM    30.13R
#WHITMAN MISSIONN/A         49  45  86  CALM    30.15R
$$

WAZ030-241510-
BLUE MOUNTAINS...WASHINGTON

CITY            SKY/WX      TMP DP  RH  WIND    PRES   REMARKS
#DIXIE 5SE      N/A         61  43  51  S1      30.15R
$$

ORZ009-041-WAZ024-241510-
COLUMBIA RIVER GORGE

CITY            SKY/WX      TMP DP  RH  WIND    PRES   REMARKS
HOOD RIVER AP   SUNNY       55  46  72  S6      30.20R
THE DALLES AP   SUNNY       57  46  67  E5      30.18R
#ARLINGTON AIRPON/A         62  44  52  W3      30.16R
#LYLE           N/A         58  44  60  N5      30.19R
#MARYHILL 2W    N/A         N/A N/A N/A CALM    N/A
#MOSIER 1S      N/A         56  40  55  CALM    30.18S
#MURDOCK        N/A         62  50  65  NW7     30.15R
#RUFUS DOT      N/A         60  45  58  S5      N/A
#SMITHVILLE     N/A         61  50  67  NW3     30.23R

$$

ORZ510-241510-
NORTH CENTRAL OREGON

CITY            SKY/WX      TMP DP  RH  WIND    PRES   REMARKS
#ANTELOPE       N/A         49  34  56  CALM    30.03R
#COW CYN RST AREN/A         60  N/A N/A N2      N/A
#DUFUR 9E       N/A         64  47  54  CALM    30.18R
#GRASS VALLEY 1SN/A         57  38  49  CALM    30.16R
#KENT DOT       N/A         53  33  46  N2      N/A
#MAUPIN SCHOOL  N/A         56  38  51  CALM    30.25R
#SHANIKO 5WSW   N/A         58  36  44  N10     N/A
#TYGH VALLEY 2NEN/A         52  41  66  CALM    30.16R
#WAPANITIA AIRPON/A         53  43  69  W1      30.17R
#WASCO DOT      N/A         50  43  77  E1      N/A
#WASCO AIRPORT  N/A         57  44  62  CALM    N/A
#WASCO 5NE      N/A         60  46  60  CALM    30.14R
$$

ORZ511-241510-
CENTRAL OREGON

CITY            SKY/WX      TMP DP  RH  WIND    PRES   REMARKS
BEND AIRPORT    N/A         N/A N/A N/A MISG    N/A
MADRAS AIRPORT  SUNNY       52  39  61  S5      30.25R
PRINEVILLE AP   SUNNY       45  30  55  CALM    30.26R
REDMOND AIRPORT SUNNY       44  28  53  SE3     30.25R
#ASHWOOD SCHOOL N/A         44  31  60  CALM    30.20R
#BEND 1SW       N/A         44  33  65  NE1     N/A
#BEND-AWBREY    N/A         53  37  54  N2      30.14R
#CULVER         N/A         50  38  63  CALM    30.10R
#CULVER 8W      N/A         52  28  39  CALM    30.21R
#LAKE BILLY CHINN/A         51  N/A N/A CALM    30.27R
#MADRAS 4S      N/A         53  11  18  CALM    30.30R
#POWELL BUTTE 3EN/A         42  30  62  SE2     N/A
#POWELL BUTTE   N/A         49  32  52  CALM    30.11R
#PRINEVILLE 3N  N/A         44  39  82  CALM    30.25R
#WARM SPRINGS   N/A         50  39  66  CALM    30.20R

$$


ORZ509-241510-
EAST SLOPES OF OREGON CASCADES

CITY            SKY/WX      TMP DP  RH  WIND    PRES   REMARKS
SISTERS AWOS    N/A         41  30  65  CALM    30.21R
#BLUE BOX PASS  N/A         57  N/A N/A CALM    N/A
#CAMP SHERMAN   N/A         34  28  78  CALM    30.28R
#LA PINE DOT    N/A         34  25  69  CALM    N/A
#LA PINE 4NW    N/A         30  22  72  CALM    30.23R
#LAVA BUTTE DOT N/A         41  32  70  CALM    N/A
#SISTERS AIRPOR N/A         40  33  76  CALM    30.17S
#SISTERS ODOT   N/A         40  N/A N/A CALM    N/A
#SISTERS 3N     N/A         38  22  52  CALM    30.16R
#SUNRIVER       N/A         38  32  79  CALM    30.19R
#SUTTLE LK DOT  N/A         41  37  86  N16G28  N/A    WCI 33
#TUMALO 3W      N/A         55  33  43  SW5     30.01R
#WANOGA BUTTE D N/A         50  28  42  NE3     N/A

$$

ORZ044-241510-
LOWER COLUMBIA BASIN...OREGON

CITY            SKY/WX      TMP DP  RH  WIND    PRES   REMARKS
HERMISTON       SUNNY       53  41  64  S5      30.17R
#BOARDMAN SCHOOLN/A         52  41  66  SE1     30.17R
#ECHO 8SW       N/A         56  42  59  CALM    30.18R
#I-84 EX 198 DOTN/A         59  43  55  NE3     N/A
#UMATILLA       N/A         54  43  66  CALM    30.10R
$$

ORZ507-241510-
NORTHERN FOOTHILLS OF THE BLUES

CITY            SKY/WX      TMP DP  RH  WIND    PRES   REMARKS
PENDLETON AIRPT SUNNY       56  40  55  SE8     30.19R
#ADAMS 3WNW     N/A         50  40  68  CALM    30.16R
#ATHENA         N/A         49  41  74  CALM    30.18R
#CAYUSE         N/A         59  44  57  E6      30.14R
#HELIX SCHOOL   N/A         47  40  76  CALM    30.16R
#HELIX 3N       N/A         58  42  55  S8      30.16R
#HELIX 6SW      N/A         54  41  61  CALM    30.17R
#HOLDMAN 5SE    N/A         52  41  66  CALM    30.17R
#HOLDMAN 6E     N/A         58  41  53  CALM    29.95R
#M-F GROVE ELEM N/A         59  41  51  CALM    30.14R
#M-FREEWATER 5SEN/A         60  45  58  NE2     30.16R
#PENDLETON DNTN N/A         49  35  58  CALM    30.22R
#PDT AQUATIC CTRN/A         51  34  52  CALM    30.19S
#PDT SUNRIDGE   N/A         48  41  77  CALM    30.21R
#PENDLETON 7NW  N/A         50  39  66  E1      31.42S
#PILOT ROCK 1S  N/A         60  40  47  E5      30.20R
#PILOT ROCK     N/A         55  39  55  SW3     30.19R
#TUTUILLA       N/A         49  42  77  CALM    30.18R
#UMAPINE 2E     N/A         52  47  83  CALM    30.14R
#WESTON SCHOOL  N/A         59  40  49  NW1     30.05R

$$

ORZ508-241510-
SOUTHERN FOOTHILLS OF THE BLUES

CITY            SKY/WX      TMP DP  RH  WIND    PRES   REMARKS
LEXINGTON       SUNNY       57  37  47  E8      30.24R
#AJAX           N/A         61  32  33  CALM    27.95R
#CONDON SCHOOL  N/A         56  37  49  CALM    30.18R
#FOSSIL SCHOOL  N/A         49  35  58  CALM    30.18R
#HEPPNER EOC    N/A         56  40  55  SE6     30.09R
#HEPPNER 4NE    N/A         57  40  53  E1      30.16R
#LEXINGTON 2SE  N/A         56  41  57  SE6     30.18R
#MIKKALO        N/A         58  36  44  E2      30.30R
#OLEX 4N        N/A         58  38  47  S6      30.16R
#RUGGS 5NE      N/A         59  39  47  S1      30.40S
#RUGGS 2SW      N/A         59  39  47  S6      30.16R

$$

ORZ502-503-241510-
BLUE MOUNTAINS

CITY            SKY/WX      TMP DP  RH  WIND    PRES   REMARKS
MEACHAM         PTCLDY      36  29  75  CALM    30.26R
#BATTLE MTN DOT N/A         50  39  66  CALM    N/A
#CUTSFORTH PARK N/A         39  35  85  S1      30.06S
#HARDMAN 10S    N/A         52  39  61  CALM    30.24R
#HEPPNER 15SE   N/A         47  40  76  CALM    25.77S
#LADD CYN SMT   N/A         46  39  76  CALM    N/A
#LADD CREEK ODOTN/A         49  39  68  SW2     N/A
#LONG CREEK HS  N/A         45  40  82  CALM    30.27R
#N POWDER DOT   N/A         49  43  80  CALM    N/A
#PIKES PEAK     N/A         60  41  49  S10     27.99S
#TOLLGATE       N/A         47  40  76  CALM    30.11S
#TROY SCHOOL    N/A         50  43  77  CALM    30.03R
#UKIAH          N/A         34  31  89  CALM    30.18R
#WESTON 4E      N/A         58  41  53  CALM    30.09R
$$

ORZ505-241510-
JOHN DAY BASIN

CITY            SKY/WX      TMP DP  RH  WIND    PRES   REMARKS
JOHN DAY        SUNNY       51  33  50  E8      30.27R
#DAYVILLE SCHOOLN/A         50  34  54  CALM    30.21R
#MITCHELL       N/A         50  37  61  CALM    30.40R
#MITCHELL 8NW   N/A         59  33  37  CALM    30.32R
#MONUMENT HS    N/A         45  34  65  CALM    30.19R
#MT. VERNON 5SE N/A         52  34  50  CALM    30.22R
#SPRAY SCHOOL   N/A         46  N/A N/A CALM    N/A
$$

ORZ506-241510-
OCHOCO AND JOHN DAY HIGHLANDS

CITY            SKY/WX      TMP DP  RH  WIND    PRES   REMARKS
#BUCK CREEK DOT N/A         52  33  48  CALM    N/A
#HORSE RIDGE DO N/A         27  13  55  NE1     N/A
#KEYES SMT DOT  N/A         53  34  48  N5      N/A
#PAULINA SCHOOL N/A         39  26  59  E1      N/A
#PINE MTN OBS   N/A         50  32  50  NW1     N/A
#PRAIRIE CITY   N/A         38  32  79  CALM    30.42R
#SENECA         N/A         33  N/A N/A CALM    N/A
#SENECA 9NW     N/A         33  27  78  CALM    30.15R
$$

ORZ049-241510-
GRANDE RONDE VALLEY

CITY            SKY/WX      TMP DP  RH  WIND    PRES   REMARKS
LA GRANDE       MOSUNNY     50  30  46  SE3     30.23R
#COVE           N/A         46  41  83  E1      30.24R
#COVE SCHOOL    N/A         45  39  79  CALM    30.23R
#COVE 6NW       N/A         43  37  79  CALM    30.12R
#ELGIN 3N       N/A         49  39  68  CALM    30.19S
#ELGIN 1E       N/A         43  36  76  CALM    N/A
#IMBLER SCHOOL  N/A         49  38  66  E2      30.18R
#ISLAND CITY 4N N/A         54  50  86  CALM    30.16R
#LADD CYN DOT   N/A         53  41  64  SE1     N/A
#LA GRANDE ELEM N/A         56  40  55  CALM    30.22R
#UNION 1S       N/A         46  40  79  CALM    30.07R
$$

ORZ050-241510-
WALLOWA COUNTY

CITY            SKY/WX      TMP DP  RH  WIND    PRES   REMARKS
JOSEPH AIRPORT  MOCLDY      54  37  52  CALM    30.26S
#IMNAHA 10S     N/A         50  37  61  SW6     30.22R
#JOSEPH 3N      N/A         43  37  79  CALM    30.26R
#JOSEPH 3W      N/A         56  44  64  SW2     30.09S
#LOSTINE        N/A         46  39  76  CALM    29.98R
#LOSTINE 3SE    N/A         46  37  71  S6      30.22R
#MT HOWARD 8000 N/A         41  35  79  N3      30.40R
#PROMISE 1S     N/A         50  41  71  CALM    30.23R
#WALLOWA SCHOOL N/A         42  37  82  CALM    30.20R



$$



USA.gov is the U.S. government's official web portal to all federal, state and local government web resources and services.